Temp
51 51 51 52 52 53 55 55 55 55 55 56 56 56 56 55 55 50 47 47 47 42 44 50 53 46 47 44 42 47 47 48 46 43 42 41 41 42 41 43 42 42 40 39 41 40 39 56 56 48 51 56 57 59
53 51 51 51 51 51 51 52 52 53 54 55 55 55 55 55 55 51 45 49 50 46 46 49 54 57 55 54 47 45 47 46 46 43 43 42 42 41 41 39 47 42 45 42 45 44 53 55 53 56 58 56 58 57
53 52 51 51 51 51 51 52 53 53 54 54 55 55 55 55 55 51 45 46 47 44 45 46 49 52 52 54 55 47 47 51 48 49 46 43 42 43 39 41 43 47 49 46 48 51 51 53 55 57 57 57 59 60
52 52 52 51 51 52 52 52 53 53 54 54 54 55 55 55 55 52 45 48 46 44 39 43 55 53 58 53 54 53 53 50 49 48 45 44 43 47 43 46 47 48 48 47 47 50 54 55 55 57 57 57 59 62
52 52 52 52 52 52 52 52 53 53 54 54 55 55 55 55 54 49 46 47 48 46 40 41 48 52 54 54 54 54 52 48 46 45 44 44 46 46 46 47 44 48 47 44 43 50 50 52 55 59 60 59 60 61
51 52 52 52 52 53 53 53 53 53 54 54 55 55 55 54 52 46 44 48 48 48 43 38 47 50 53 54 53 51 50 46 46 45 44 45 49 47 44 42 49 51 53 52 49 54 54 56 56 60 59 56 57 55
51 51 52 52 52 52 53 53 53 53 54 54 54 54 54 52 46 45 44 47 49 47 44 39 41 49 52 51 50 50 48 46 47 44 43 44 46 48 43 41 51 53 55 54 55 55 54 55 55 57 56 55 55 55
50 51 51 51 52 52 53 53 53 53 53 53 53 54 53 53 51 46 49 51 49 45 45 38 40 45 50 46 47 46 45 45 45 45 43 44 45 44 43 49 51 55 55 56 56 56 55 55 56 55 56 55 52 51
50 50 51 51 52 52 53 53 53 53 53 53 53 53 48 46 44 46 55 53 47 48 40 39 36 39 49 44 46 45 44 42 44 42 42 45 40 42 47 47 51 53 54 51 53 53 53 52 52 52 53 53 51 50
50 50 51 51 51 52 52 53 53 53 53 53 49 45 40 45 56 55 48 44 44 44 42 39 40 40 46 43 45 45 42 41 39 43 44 41 41 45 47 49 52 52 53 54 51 48 49 49 49 50 50 51 51 50
50 50 51 51 51 52 52 53 53 52 51 45 42 42 46 55 51 43 38 37 38 39 39 40 41 41 46 43 44 45 41 39 38 42 43 38 39 44 48 49 51 52 53 52 52 52 51 51 50 50 50 51 50 50
50 50 51 51 51 51 52 52 52 46 47 47 46 48 49 46 41 38 35 37 37 38 41 40 43 43 44 45 44 42 41 41 38 43 41 37 42 47 49 50 51 53 53 53 54 52 51 51 51 50 49 48 48 48
50 50 50 50 50 51 52 51 51 51 50 47 44 43 41 39 30 34 31 34 35 41 42 42 42 44 43 46 42 41 42 40 43 39 40 41 44 48 49 50 51 53 53 52 51 51 52 51 52 50 48 48 48 47
50 50 50 50 50 51 52 52 52 50 44 41 40 31 35 33 35 36 38 38 43 43 42 42 44 42 41 42 40 41 42 42 38 35 37 41 44 47 49 51 51 49 51 51 50 51 50 50 49 49 48 48 47 45
50 50 50 50 49 51 51 51 51 46 43 41 40 31 35 40 41 42 43 42 45 44 44 43 44 43 40 41 40 41 38 38 38 38 39 42 45 47 48 49 49 49 48 48 48 49 49 49 47 46 46 46 46 45
50 49 46 50 49 50 50 50 48 44 43 43 41 38 40 38 39 41 41 41 44 44 44 44 43 44 41 40 39 40 39 37 39 40 42 44 46 47 47 48 48 49 48 47 48 48 48 47 46 45 46 46 46 46
50 43 50 50 49 50 50 46 44 43 41 42 41 41 39 39 40 40 41 43 44 46 42 42 43 41 41 38 38 40 40 41 42 42 43 45 46 46 48 50 51 50 48 47 47 47 46 46 46 46 45 45 46 46
44 48 50 50 49 49 46 46 43 43 42 42 38 39 40 41 40 43 44 44 44 44 43 43 44 39 38 39 38 40 42 42 42 43 44 46 47 49 50 50 50 49 47 47 47 46 46 45 45 45 45 45 45 46
47 48 51 50 49 45 42 43 43 38 40 41 42 42 41 41 43 43 44 45 47 46 46 44 41 37 38 40 41 41 42 42 42 43 44 46 47 48 48 48 48 46 46 46 46 45 46 46 47 49 46 45 45 45
49 50 50 51 50 44 41 40 45 40 37 40 42 40 40 41 42 43 43 44 43 43 43 41 42 42 41 43 44 44 44 44 44 43 42 43 45 47 47 47 46 45 45 45 45 43 45 45 46 49 49 45 45 46
49 49 50 48 46 44 41 39 39 39 39 39 40 40 39 42 41 41 42 43 42 40 40 41 42 43 44 44 44 44 44 46 46 45 44 43 44 45 45 46 45 47 46 44 44 44 43 45 48 46 45 46 47 48
44 50 44 47 43 43 40 41 38 39 38 38 39 39 38 39 39 41 43 41 40 41 42 43 44 45 45 46 45 46 48 48 46 44 43 44 44 44 44 46 48 48 48 47 44 45 46 47 49 48 48 47 47 48
48 47 44 45 41 35 36 41 38 37 36 37 38 37 37 37 39 42 38 39 41 43 44 44 46 47 47 47 48 47 48 47 45 45 45 45 45 45 46 46 47 48 48 46 46 45 46 44 47 49 49 47 47 48
47 42 39 37 36 31 38 35 36 35 36 35 33 33 35 37 39 37 36 38 42 42 44 45 46 44 45 46 46 46 46 45 44 44 45 45 44 43 44 45 45 46 46 46 45 46 46 46 46 49 49 48 47 48
33 34 35 27 37 35 33 34 35 33 32 34 33 34 36 38 35 33 34 39 41 42 43 44 44 45 44 43 43 44 45 45 44 44 44 45 45 46 45 44 45 46 46 46 46 47 48 47 49 49 50 50 48 48
23 34 31 35 35 35 34 33 33 34 34 33 34 37 37 37 35 35 36 40 41 42 43 44 43 43 43 43 43 43 45 44 45 45 45 45 45 46 44 44 44 45 46 47 48 48 49 49 49 50 50 48 41 51
32 33 35 38 38 39 36 37 38 35 33 33 35 36 36 34 35 39 42 43 43 43 45 46 46 45 45 43 43 44 44 45 46 46 46 46 46 46 46 45 44 46 48 48 48 49 50 50 50 50 50 51 51 52
36 38 34 37 37 39 39 39 37 36 37 39 39 37 37 37 35 42 43 45 44 43 44 45 46 49 48 48 47 46 45 46 47 46 45 45 45 46 46 47 47 39 48 50 50 50 51 52 51 50 49 50 51 51
35 39 43 40 40 41 40 39 38 40 42 40 39 38 40 42 44 44 44 44 44 45 44 44 44 46 47 47 47 46 46 45 44 42 42 41 42 46 48 48 48 48 48 49 36 43 50 51 51 51 51 50 51 52
37 42 41 39 38 38 41 42 40 44 45 43 43 43 43 44 44 45 44 45 45 45 45 44 44 45 44 46 44 43 44 44 45 44 42 42 44 49 51 50 50 50 51 50 51 49 38 46 44 50 49 49 49 50
42 43 43 43 41 42 44 42 42 44 43 42 42 41 41 42 45 46 46 46 48 48 45 44 43 43 43 43 43 42 42 45 46 47 49 50 50 48 50 51 50 51 51 52 51 50 49 49 50 51 50 50 50 48
43 41 39 38 39 43 45 44 43 43 42 41 40 41 41 41 41 44 45 46 45 46 41 44 44 46 47 48 46 45 38 47 47 49 51 49 50 50 52 51 51 51 51 51 51 50 50 49 50 50 50 50 50 50
41 42 41 40 40 41 43 43 42 42 43 43 43 44 42 42 41 45 46 46 47 46 46 46 45 46 46 46 46 46 41 49 46 39 38 37 36 40 46 49 49 50 52 51 50 51 51 51 50 51 51 51 50 51
MSLP
1009.13 1008.80 1008.27 1007.42 1006.69 1005.74 1006.04 1006.55 1007.59 1008.85 1010.41 1010.93 1012.34 1013.23 1014.08 1014.81 1015.26 1015.59 1016.30 1016.27 1016.42 1016.69 1016.05 1015.48 1015.06 1014.72 1014.62 1014.72 1014.83 1014.41 1014.22 1013.88 1013.91 1014.54 1015.26 1015.60 1015.45 1015.29 1015.13 1014.82 1014.75 1015.05 1015.33 1015.66 1015.56 1015.13 1014.00 1012.90 1011.88 1012.10 1011.68 1010.55 1009.79 1009.71
1009.65 1009.43 1009.11 1008.70 1008.35 1008.03 1007.51 1007.50 1008.78 1009.39 1010.53 1011.42 1012.73 1013.51 1014.22 1014.72 1015.32 1015.60 1016.40 1016.36 1016.18 1016.60 1016.27 1015.59 1014.85 1014.24 1014.25 1014.18 1014.49 1014.77 1014.95 1014.93 1014.91 1015.35 1015.80 1015.94 1016.00 1015.84 1015.77 1015.50 1015.02 1015.26 1015.04 1014.95 1014.74 1013.87 1013.35 1013.63 1013.79 1012.75 1012.01 1011.67 1010.72 1010.75
1010.13 1009.90 1009.83 1009.77 1009.52 1009.32 1009.25 1009.52 1010.16 1010.95 1011.63 1012.25 1013.07 1013.86 1014.28 1015.02 1015.44 1015.77 1016.40 1016.51 1016.52 1016.81 1016.13 1015.57 1014.39 1013.77 1013.79 1013.98 1013.84 1014.52 1014.89 1014.76 1015.02 1015.00 1015.67 1016.12 1016.15 1016.00 1016.02 1015.58 1015.22 1015.05 1015.00 1015.21 1014.87 1014.35 1014.06 1013.93 1013.73 1013.25 1012.59 1012.08 1011.24 1010.98
1010.65 1010.44 1010.40 1010.47 1010.45 1010.44 1010.73 1011.05 1011.36 1011.80 1012.44 1012.86 1013.45 1014.13 1014.68 1015.06 1015.40 1015.89 1016.44 1016.60 1016.58 1016.98 1016.89 1015.20 1013.91 1013.66 1013.15 1013.38 1013.70 1013.99 1014.32 1014.87 1015.10 1015.43 1015.81 1016.17 1016.24 1015.87 1015.80 1015.50 1015.27 1014.91 1015.18 1015.08 1014.99 1014.62 1014.41 1014.09 1013.86 1013.54 1013.61 1012.82 1012.45 1011.88
1011.31 1011.12 1011.05 1011.04 1011.22 1011.39 1011.51 1011.78 1012.09 1012.45 1012.93 1013.40 1014.01 1014.38 1014.58 1015.04 1015.53 1016.07 1016.49 1016.46 1016.45 1017.03 1016.87 1015.83 1014.35 1013.36 1013.13 1013.29 1013.71 1014.04 1014.43 1015.07 1015.71 1016.05 1016.39 1016.36 1015.93 1015.89 1015.81 1015.66 1015.01 1014.61 1014.50 1014.79 1015.08 1015.22 1014.95 1014.92 1014.38 1014.10 1013.67 1013.57 1012.80 1011.98
1012.01 1011.78 1011.61 1011.68 1011.72 1012.00 1012.21 1012.44 1012.80 1013.16 1013.51 1013.92 1014.27 1014.65 1014.97 1015.25 1015.72 1016.25 1016.56 1016.45 1016.32 1016.66 1016.79 1016.14 1014.79 1013.83 1013.28 1013.44 1013.86 1014.31 1014.67 1015.27 1015.82 1016.32 1016.49 1016.09 1015.46 1015.42 1015.71 1015.47 1014.02 1014.00 1014.05 1013.98 1014.69 1014.97 1015.02 1014.76 1014.60 1014.24 1013.62 1013.37 1013.19 1012.76
1012.65 1012.46 1012.26 1012.18 1012.29 1012.49 1012.77 1012.96 1013.29 1013.71 1014.06 1014.31 1014.56 1014.88 1015.10 1015.52 1015.83 1016.09 1016.48 1016.51 1016.35 1016.67 1016.72 1016.48 1015.24 1013.96 1013.53 1013.70 1014.33 1014.79 1015.05 1015.48 1015.84 1016.32 1016.45 1016.18 1015.75 1015.48 1015.61 1015.19 1013.80 1013.66 1013.97 1014.25 1014.34 1015.06 1015.52 1014.95 1014.39 1014.55 1014.58 1014.51 1014.15 1013.76
1013.02 1013.03 1012.93 1012.78 1012.69 1012.85 1013.06 1013.33 1013.63 1013.96 1014.29 1014.61 1014.82 1015.07 1015.49 1015.70 1015.82 1015.84 1015.64 1015.74 1016.41 1016.76 1016.79 1016.73 1015.71 1014.71 1013.77 1014.22 1014.97 1015.25 1015.61 1015.83 1016.09 1016.21 1016.24 1016.09 1016.02 1015.92 1015.54 1014.02 1013.69 1013.76 1014.07 1014.47 1014.78 1014.81 1015.11 1015.25 1015.25 1015.31 1015.37 1015.30 1014.92 1015.31
1013.37 1013.35 1013.32 1013.25 1013.29 1013.34 1013.37 1013.58 1013.90 1014.24 1014.56 1014.90 1015.18 1015.51 1015.74 1015.93 1016.04 1015.74 1015.53 1015.85 1016.31 1016.96 1016.93 1016.86 1016.20 1015.21 1014.13 1014.72 1015.12 1015.47 1015.52 1016.23 1016.38 1016.26 1016.18 1016.05 1016.24 1015.83 1014.97 1014.61 1014.29 1014.11 1014.10 1014.49 1014.92 1015.51 1015.88 1016.14 1016.42 1016.52 1016.69 1016.37 1016.29 1016.61
1013.51 1013.53 1013.54 1013.64 1013.67 1013.60 1013.77 1014.02 1014.33 1014.56 1014.96 1015.28 1015.67 1015.68 1016.13 1015.81 1015.44 1015.49 1016.02 1016.41 1016.48 1016.56 1016.76 1016.76 1016.17 1015.30 1014.74 1015.19 1015.34 1015.59 1015.76 1016.07 1016.32 1016.15 1015.96 1015.96 1015.91 1015.36 1015.02 1014.54 1014.27 1014.24 1014.52 1014.82 1015.31 1016.35 1016.66 1016.91 1017.23 1017.35 1017.22 1017.32 1017.39 1017.61
1013.69 1013.72 1013.75 1013.87 1013.90 1013.92 1014.02 1014.28 1014.63 1015.00 1015.39 1015.80 1015.93 1015.93 1015.78 1015.39 1015.41 1016.12 1016.66 1016.94 1017.07 1016.99 1016.59 1016.10 1015.82 1015.25 1014.74 1014.99 1015.19 1015.37 1015.66 1016.04 1016.18 1016.15 1015.99 1016.29 1016.08 1015.44 1015.08 1014.72 1014.43 1014.60 1014.93 1015.28 1015.57 1016.24 1016.87 1017.18 1017.54 1017.73 1018.01 1018.13 1018.22 1018.21
1013.71 1013.89 1013.86 1014.07 1014.11 1014.10 1014.23 1014.55 1014.92 1015.29 1015.63 1015.88 1016.03 1016.00 1015.82 1015.75 1016.35 1016.74 1016.97 1017.17 1016.88 1016.36 1015.92 1015.74 1015.28 1015.06 1014.91 1014.63 1014.90 1015.46 1015.58 1015.91 1015.97 1015.78 1016.03 1016.25 1015.74 1015.44 1015.30 1015.16 1015.11 1014.87 1015.48 1016.06 1016.36 1016.81 1017.28 1017.70 1018.00 1018.29 1018.55 1018.84 1019.01 1019.02
1013.58 1014.03 1014.24 1014.43 1014.56 1014.49 1014.60 1014.98 1015.36 1015.52 1015.61 1015.98 1016.10 1016.05 1015.99 1016.70 1016.90 1016.73 1016.58 1016.42 1016.07 1015.25 1015.15 1015.11 1015.19 1014.84 1014.91 1014.68 1015.14 1015.33 1015.51 1015.82 1015.56 1015.91 1016.07 1016.00 1015.78 1015.71 1015.76 1015.79 1015.85 1016.03 1016.23 1016.65 1017.28 1017.59 1018.04 1018.43 1018.69 1018.88 1019.20 1019.40 1019.45 1019.62
1013.51 1014.05 1014.39 1014.76 1014.88 1014.67 1015.05 1015.39 1015.57 1015.72 1015.96 1016.07 1016.14 1016.48 1016.49 1016.48 1016.18 1015.68 1015.39 1015.19 1014.69 1014.45 1014.49 1014.53 1014.74 1014.71 1014.89 1014.96 1015.23 1015.41 1015.57 1015.49 1015.85 1016.16 1016.17 1015.93 1015.94 1016.07 1016.16 1016.40 1016.42 1017.07 1017.11 1017.51 1018.06 1018.51 1018.84 1019.09 1019.36 1019.45 1019.60 1019.80 1019.98 1020.22
1013.69 1014.22 1014.63 1015.00 1015.28 1015.34 1015.36 1015.62 1015.99 1016.14 1016.21 1016.06 1016.03 1016.00 1016.01 1015.63 1015.34 1014.99 1014.87 1014.80 1014.27 1013.95 1014.18 1014.45 1014.57 1014.68 1015.05 1015.17 1015.34 1015.54 1015.76 1015.76 1015.95 1016.05 1015.98 1015.92 1016.00 1016.15 1016.42 1016.68 1016.95 1017.40 1017.94 1018.51 1018.88 1019.18 1019.40 1019.64 1019.86 1020.17 1020.38 1020.52 1020.63 1020.77
1013.96 1014.58 1015.09 1015.20 1015.49 1015.63 1015.78 1015.86 1016.18 1016.42 1016.20 1015.94 1015.71 1015.77 1015.68 1015.76 1015.25 1014.93 1014.75 1014.51 1013.98 1013.98 1014.10 1014.04 1014.59 1014.89 1015.25 1015.23 1015.45 1015.50 1015.79 1015.81 1015.73 1015.80 1015.85 1016.06 1016.28 1016.43 1016.73 1017.11 1017.51 1017.96 1018.45 1018.94 1019.29 1019.55 1019.74 1019.94 1020.21 1020.56 1020.79 1020.96 1021.04 1021.10
1014.00 1014.66 1015.10 1015.47 1015.69 1015.81 1015.76 1016.16 1016.31 1016.08 1015.88 1015.76 1015.79 1015.73 1015.70 1015.55 1015.29 1015.02 1014.71 1014.36 1014.02 1014.03 1014.40 1014.25 1014.70 1015.09 1015.26 1015.29 1015.54 1015.62 1015.68 1015.61 1015.61 1015.90 1016.03 1016.02 1016.09 1016.43 1016.88 1017.51 1017.94 1018.29 1018.71 1019.18 1019.58 1019.87 1020.12 1020.32 1020.58 1020.86 1021.11 1021.27 1021.25 1021.33
1014.42 1014.80 1015.26 1015.66 1015.84 1016.23 1016.80 1016.62 1016.44 1016.30 1016.15 1015.99 1015.91 1015.83 1015.71 1015.50 1015.24 1014.92 1014.55 1014.23 1014.13 1013.98 1014.10 1014.24 1014.44 1015.10 1015.35 1015.47 1015.65 1015.47 1015.63 1015.85 1016.01 1016.22 1016.39 1016.63 1016.80 1016.94 1017.23 1017.78 1018.25 1018.67 1019.14 1019.56 1019.87 1020.17 1020.44 1020.63 1020.83 1020.99 1021.19 1021.36 1021.48 1021.59
1014.91 1015.24 1015.64 1016.04 1016.03 1016.62 1016.90 1016.93 1016.95 1016.63 1016.37 1016.16 1016.10 1016.04 1015.75 1015.45 1015.23 1014.90 1014.46 1013.93 1013.67 1013.77 1013.92 1014.40 1014.90 1015.45 1015.42 1015.32 1015.38 1015.58 1015.67 1015.83 1016.29 1016.74 1016.99 1017.05 1017.06 1017.50 1017.82 1018.26 1018.72 1019.18 1019.51 1019.81 1020.11 1020.33 1020.47 1020.53 1020.63 1020.87 1021.11 1021.33 1021.56 1021.73
1015.47 1015.71 1015.94 1016.01 1016.12 1016.38 1016.76 1016.92 1016.52 1016.73 1016.67 1016.56 1016.16 1015.94 1015.78 1015.64 1015.37 1015.05 1014.82 1014.53 1014.43 1014.32 1014.70 1015.04 1015.12 1014.95 1015.00 1014.97 1015.01 1015.04 1015.55 1015.94 1016.28 1017.06 1017.68 1017.86 1017.93 1018.15 1018.32 1018.58 1018.97 1019.37 1019.71 1020.00 1020.23 1020.37 1020.59 1020.70 1020.71 1020.79 1020.99 1021.21 1021.53 1021.65
1015.92 1016.08 1016.05 1016.01 1015.90 1015.89 1016.23 1016.51 1016.67 1016.72 1016.56 1016.43 1016.26 1016.02 1015.97 1015.65 1015.53 1015.56 1015.31 1015.04 1015.03 1015.34 1015.33 1015.03 1014.87 1014.74 1014.96 1015.00 1014.96 1015.06 1015.56 1015.95 1016.37 1016.62 1017.29 1017.99 1018.14 1018.32 1018.63 1018.89 1019.13 1019.39 1019.61 1019.98 1020.27 1020.48 1020.54 1020.57 1020.53 1020.74 1020.94 1021.09 1021.24 1021.34
1015.89 1015.77 1015.95 1015.82 1016.08 1016.28 1016.60 1016.86 1016.95 1016.79 1016.85 1016.64 1016.34 1016.33 1016.40 1016.24 1016.10 1015.85 1015.59 1015.27 1015.48 1015.26 1015.11 1014.89 1014.76 1014.80 1015.01 1015.18 1015.27 1015.33 1015.59 1016.14 1016.61 1016.85 1017.21 1017.54 1018.31 1018.64 1018.85 1018.85 1019.17 1019.33 1019.50 1019.75 1020.12 1020.25 1020.29 1020.25 1020.33 1020.54 1020.79 1020.95 1021.16 1021.33
1015.68 1015.67 1015.83 1015.97 1016.28 1016.69 1017.23 1016.90 1017.01 1017.06 1017.03 1016.97 1016.68 1016.71 1016.70 1016.48 1016.19 1016.02 1016.02 1015.86 1015.43 1014.73 1014.64 1014.78 1014.75 1014.86 1015.14 1015.26 1015.41 1015.67 1015.94 1016.38 1016.88 1017.10 1017.39 1017.67 1017.99 1018.26 1018.47 1018.60 1018.75 1019.07 1019.34 1019.53 1019.64 1019.79 1019.95 1019.98 1020.14 1020.34 1020.64 1020.83 1021.08 1021.34
1016.10 1016.50 1016.71 1016.87 1017.04 1017.54 1017.43 1017.46 1017.47 1017.47 1017.27 1017.27 1017.34 1017.10 1016.84 1016.65 1016.43 1016.39 1016.28 1015.87 1015.04 1014.74 1014.73 1014.73 1014.85 1015.32 1015.57 1015.68 1015.93 1016.06 1016.25 1016.46 1016.83 1017.17 1017.35 1017.64 1018.07 1018.37 1018.43 1018.51 1018.63 1018.70 1018.84 1019.03 1019.32 1019.44 1019.58 1019.74 1019.88 1020.15 1020.43 1020.63 1020.91 1021.17
1017.14 1017.52 1017.53 1017.53 1017.39 1017.59 1017.63 1017.62 1017.51 1017.44 1017.55 1017.54 1017.40 1016.96 1016.68 1016.51 1016.46 1016.33 1016.01 1015.39 1014.88 1014.69 1014.69 1014.80 1015.03 1015.23 1015.56 1016.04 1016.39 1016.40 1016.42 1016.58 1016.83 1017.25 1017.46 1017.55 1017.98 1018.33 1018.55 1018.60 1018.66 1018.70 1018.77 1018.95 1019.19 1019.22 1019.25 1019.47 1019.58 1019.77 1020.06 1020.33 1020.62 1020.95
1017.84 1017.67 1017.66 1017.39 1017.43 1017.40 1017.39 1017.48 1017.48 1017.46 1017.54 1017.44 1017.12 1016.64 1016.41 1016.34 1016.30 1015.94 1015.36 1014.64 1014.59 1014.48 1014.64 1014.80 1015.13 1015.56 1015.85 1015.88 1016.35 1016.51 1016.52 1016.63 1016.86 1017.16 1017.39 1017.44 1017.65 1017.90 1018.22 1018.53 1018.64 1018.51 1018.39 1018.50 1018.73 1018.87 1018.91 1019.05 1019.20 1019.43 1019.74 1019.96 1020.13 1020.40
1017.74 1017.45 1017.20 1017.04 1016.96 1016.89 1017.02 1017.05 1017.10 1017.23 1017.14 1016.93 1016.51 1016.29 1016.17 1016.00 1015.52 1015.00 1014.38 1014.18 1014.16 1013.95 1013.97 1014.18 1014.49 1014.81 1015.24 1015.66 1016.01 1016.17 1016.36 1016.62 1016.71 1016.81 1016.87 1017.09 1017.27 1017.41 1017.65 1017.94 1018.07 1018.00 1017.91 1018.08 1018.26 1018.31 1018.36 1018.52 1018.75 1019.01 1019.23 1019.42 1019.59 1019.75
1016.89 1016.69 1016.63 1016.49 1016.66 1016.42 1016.36 1016.39 1016.48 1016.27 1016.02 1015.87 1015.77 1015.62 1015.32 1015.00 1014.65 1014.34 1014.10 1014.00 1013.89 1013.83 1013.98 1014.27 1014.51 1014.76 1015.06 1015.40 1015.81 1016.24 1016.67 1016.79 1016.92 1017.07 1017.16 1017.30 1017.32 1017.35 1017.40 1017.47 1017.58 1017.59 1017.69 1017.75 1017.87 1017.99 1018.02 1018.11 1018.32 1018.63 1018.92 1019.17 1019.25 1019.47
1016.28 1015.78 1015.69 1015.72 1015.88 1015.96 1015.88 1015.78 1015.63 1015.13 1014.82 1014.97 1015.07 1014.91 1014.63 1014.39 1014.17 1014.14 1014.13 1014.18 1014.26 1014.17 1014.44 1014.79 1015.15 1015.10 1015.34 1015.66 1016.02 1016.32 1016.49 1016.78 1017.15 1017.32 1017.40 1017.48 1017.50 1017.23 1016.93 1017.09 1017.27 1017.35 1017.44 1017.57 1017.60 1017.68 1017.77 1017.89 1018.02 1018.27 1018.49 1018.69 1018.85 1019.00
1015.22 1014.81 1014.95 1015.08 1015.16 1014.88 1014.65 1014.79 1014.71 1014.35 1014.34 1014.33 1014.41 1014.48 1014.42 1014.23 1014.17 1014.13 1014.19 1014.27 1014.30 1014.45 1014.77 1015.02 1015.26 1015.43 1015.90 1016.02 1016.32 1016.57 1016.64 1016.67 1016.76 1016.95 1017.08 1017.06 1016.93 1016.75 1016.67 1016.72 1016.80 1016.88 1017.04 1017.26 1017.37 1017.54 1017.67 1017.87 1018.08 1018.24 1018.48 1018.71 1018.83 1018.99
1013.84 1014.01 1014.04 1014.04 1013.99 1013.59 1013.43 1013.66 1013.95 1014.04 1014.05 1014.06 1014.22 1014.43 1014.48 1014.39 1014.18 1014.14 1014.24 1014.30 1014.38 1014.67 1014.96 1015.33 1015.56 1015.62 1015.86 1016.03 1016.19 1016.37 1016.45 1016.23 1016.25 1016.33 1016.39 1016.42 1016.49 1016.54 1016.48 1016.46 1016.50 1016.53 1016.65 1016.78 1016.94 1017.18 1017.39 1017.59 1017.73 1017.86 1018.01 1018.19 1018.30 1018.50
1013.28 1013.43 1013.52 1013.64 1013.46 1013.10 1013.07 1013.39 1013.55 1013.71 1013.81 1013.92 1014.11 1014.18 1014.35 1014.46 1014.56 1014.42 1014.19 1014.22 1014.57 1014.78 1015.00 1015.17 1015.38 1015.39 1015.36 1015.44 1015.61 1015.74 1015.76 1015.82 1015.83 1015.87 1015.95 1016.11 1016.19 1016.22 1016.28 1016.23 1016.18 1016.22 1016.28 1016.43 1016.56 1016.80 1017.05 1017.26 1017.35 1017.41 1017.48 1017.58 1017.74 1017.90
1012.80 1012.87 1012.97 1013.11 1013.04 1013.06 1013.02 1013.03 1013.23 1013.28 1013.29 1013.44 1013.55 1013.65 1013.89 1014.12 1014.26 1014.06 1014.03 1013.99 1014.10 1014.26 1014.49 1014.53 1014.72 1014.87 1014.95 1015.11 1015.28 1015.38 1015.42 1015.44 1015.47 1015.59 1015.70 1015.83 1015.94 1016.00 1016.04 1015.95 1015.95 1016.01 1016.06 1016.13 1016.31 1016.46 1016.72 1016.88 1016.95 1016.99 1017.11 1017.24 1017.44 1017.59
Wind_Speed
10 13 18 18 21 16 18 25 27 27 24 24 21 19 17 14 10 4 1 2 4 2 5 2 2 1 2 2 2 4 3 4 5 5 3 2 2 1 1 1 1 3 4 2 2 2 6 10 11 2 5 6 3 6
9 10 12 15 17 19 24 27 22 24 21 20 19 17 14 12 9 4 2 2 0 3 5 2 5 6 6 6 4 2 4 1 3 5 2 3 2 2 3 2 1 2 5 6 8 7 1 5 7 14 4 6 3 7
11 9 10 11 13 16 18 20 19 19 18 18 18 16 13 10 9 5 2 0 3 2 5 3 3 2 1 6 5 4 2 3 0 2 4 2 2 3 3 5 2 1 2 1 2 4 6 9 11 10 8 7 8 7
11 11 11 11 11 12 13 13 16 16 15 15 13 11 11 11 11 5 2 0 3 3 2 7 3 5 1 4 5 4 4 4 4 2 3 2 2 2 2 1 3 3 3 3 3 2 2 8 11 12 5 6 8 9
11 11 10 11 11 9 12 12 11 11 11 12 11 10 10 15 12 4 1 1 1 4 3 5 7 4 4 5 7 5 3 3 2 3 2 2 2 2 0 1 3 4 6 4 4 3 5 6 12 16 8 3 2 3
12 10 10 10 11 10 9 11 11 11 11 10 11 10 9 11 9 3 2 1 2 2 2 3 4 4 3 5 7 5 3 3 3 3 2 2 2 3 2 2 4 3 2 6 6 4 3 3 11 8 5 10 9 9
11 11 9 8 9 9 8 10 12 11 10 8 9 9 10 10 3 3 4 2 2 1 2 4 5 3 2 4 2 3 3 2 3 2 1 1 1 3 2 2 3 5 5 1 9 7 3 8 2 7 9 9 10 14
9 9 9 9 7 7 7 9 10 10 10 10 10 10 10 7 4 3 1 8 3 3 2 1 4 2 3 1 2 1 2 2 3 1 0 2 2 2 2 6 3 4 7 5 8 4 3 6 9 10 8 7 15 14
5 7 8 8 7 7 7 9 10 10 12 11 10 10 3 3 1 2 6 11 1 3 1 1 2 3 3 2 2 2 2 2 1 1 2 3 0 4 4 4 2 3 4 6 8 10 9 10 9 8 7 10 13 10
1 3 5 6 6 5 8 9 10 12 12 10 2 3 2 3 4 6 4 2 3 3 2 2 1 2 3 1 0 2 2 2 2 3 1 3 4 2 2 3 5 7 8 7 13 7 5 8 8 7 9 7 8 6
4 2 2 4 5 4 8 11 14 14 7 2 1 1 2 2 3 3 2 3 1 2 2 3 5 1 2 4 3 1 3 1 2 4 3 2 3 3 5 3 5 8 8 7 9 8 7 8 7 8 7 7 6 6
8 5 3 3 4 3 10 15 11 4 2 1 0 1 1 3 3 3 2 0 3 5 3 4 5 4 2 2 4 2 3 1 2 1 3 1 4 1 2 4 6 11 12 11 10 11 9 9 7 6 6 5 5 5
12 9 6 6 3 3 13 12 10 5 2 2 1 2 3 0 4 5 6 3 2 4 4 3 2 3 1 3 4 2 2 3 1 2 2 4 1 2 3 4 9 8 13 13 10 8 8 7 6 5 5 4 5 5
14 11 7 10 5 6 9 8 7 5 3 1 3 2 3 3 4 5 4 4 5 2 4 3 3 2 1 4 2 3 1 2 1 0 4 2 4 4 4 4 12 7 10 10 9 7 7 6 5 5 5 4 4 5
15 14 10 10 8 6 8 10 4 2 1 1 1 3 4 4 4 3 3 2 3 2 3 3 3 3 3 4 1 3 2 2 4 4 3 3 5 5 6 6 9 9 8 7 5 6 6 6 6 5 4 4 4 4
16 13 3 12 9 7 9 6 2 1 3 1 1 2 2 1 3 1 2 3 0 3 2 3 3 3 2 4 3 4 5 4 4 3 3 5 7 7 7 6 6 7 7 7 6 5 5 6 6 6 4 4 4 5
8 3 12 13 10 10 13 4 2 1 3 2 1 1 1 2 3 2 1 2 1 2 3 3 4 2 2 3 1 3 4 3 2 2 3 4 6 7 9 7 6 6 7 6 5 5 4 5 5 5 5 2 4 4
4 10 16 14 6 7 2 2 3 3 3 2 2 4 3 2 3 2 2 1 1 3 2 2 5 3 3 4 3 3 2 0 2 3 3 5 5 6 8 9 6 6 6 5 5 4 4 5 4 3 5 4 4 4
8 9 14 11 4 3 3 2 2 1 1 1 2 2 2 2 2 3 3 2 2 1 4 3 4 2 3 3 3 3 3 3 4 2 3 3 6 7 7 6 6 5 6 5 4 3 3 5 3 3 3 3 3 2
10 10 11 5 3 3 4 1 1 1 1 2 2 2 1 1 3 2 3 3 2 2 4 2 3 3 4 3 4 3 3 4 4 4 3 2 2 6 6 6 5 5 4 4 3 4 3 2 1 3 4 3 4 3
4 2 3 2 1 2 2 2 2 1 2 1 2 2 2 3 3 3 3 1 3 1 1 3 2 1 2 1 1 3 5 5 4 4 5 4 3 4 4 3 4 3 3 3 4 3 4 3 3 3 3 3 3 3
2 2 1 1 2 2 3 2 1 2 1 2 3 2 2 2 2 2 3 4 1 3 3 3 2 3 3 3 2 2 5 5 4 4 6 7 4 3 3 4 5 4 4 4 4 4 4 3 3 3 4 3 3 3
3 3 2 3 3 4 2 2 3 3 3 3 3 3 2 2 2 2 1 2 3 3 2 2 2 3 3 2 5 5 5 6 4 4 4 3 3 3 3 3 3 4 4 4 3 4 4 4 5 4 3 3 3 2
3 3 3 2 3 1 2 4 2 1 1 2 2 3 1 2 2 1 2 3 4 1 3 5 4 4 3 4 3 2 2 3 4 3 3 5 4 3 3 4 3 3 3 3 4 3 3 4 5 4 4 3 4 4
5 5 3 3 1 2 2 2 2 3 2 1 2 3 2 0 1 1 2 4 2 2 2 3 3 2 4 3 1 0 1 3 4 4 2 3 3 3 2 1 1 2 3 3 3 4 3 4 4 5 5 4 6 6
2 2 3 3 1 1 3 1 1 3 1 2 4 3 1 1 1 4 4 3 3 3 4 5 5 3 2 3 4 3 3 3 4 3 2 4 4 4 4 4 3 3 4 4 3 4 5 4 5 6 6 7 6 6
2 4 3 2 1 2 1 1 2 2 3 5 3 2 2 2 4 4 3 2 2 3 4 5 6 5 5 4 2 2 3 4 2 3 2 3 3 4 4 4 5 4 3 5 4 5 5 6 6 6 6 3 5 6
6 2 5 4 3 3 2 3 4 5 4 4 2 4 4 4 4 3 2 2 1 1 3 3 3 2 3 3 4 5 4 3 4 4 3 2 1 2 3 3 3 4 2 3 4 3 4 4 5 6 6 6 5 4
3 3 3 5 5 4 4 3 3 4 3 3 3 2 2 2 1 1 1 1 1 3 5 5 4 4 5 5 4 3 4 4 5 4 4 3 2 3 4 4 3 3 3 3 3 5 5 4 5 5 6 6 4 3
5 4 4 6 5 6 5 6 4 3 3 3 2 1 2 2 1 1 2 2 3 4 4 4 4 4 4 4 3 1 2 3 4 4 4 4 4 2 2 3 3 3 3 4 4 3 3 3 3 3 4 3 3 3
3 4 3 3 4 4 5 4 1 0 2 2 1 2 2 1 2 1 2 2 3 3 4 4 2 2 4 4 3 2 3 3 5 7 5 3 3 3 3 3 3 3 4 4 4 4 3 3 4 5 6 7 8 7
3 5 4 4 3 2 3 4 4 3 3 2 2 2 1 2 0 3 1 2 3 3 2 4 4 4 5 3 3 3 5 2 4 4 5 3 3 3 2 2 2 3 4 4 4 4 5 5 4 5 6 7 8 8
3 2 2 1 1 1 2 3 2 1 1 3 3 4 4 5 4 3 1 1 3 4 5 4 4 3 3 5 4 3 4 3 3 4 4 3 3 3 2 2 2 3 5 4 4 4 5 6 5 4 4 5 6 6
Wind_Direction
38 28 15 34 34 43 179 152 137 137 140 135 139 140 142 143 141 109 165 294 121 148 270 209 317 340 25 68 99 287 23 347 32 70 110 184 124 219 21 250 236 166 122 163 135 218 262 9 342 308 276 304 33 28
37 57 38 34 59 59 72 88 99 115 124 127 137 137 140 137 150 96 98 296 119 124 241 253 242 229 197 201 147 350 158 211 183 88 66 121 136 94 148 293 105 256 185 184 178 215 27 27 316 295 285 289 28 32
38 65 79 59 60 76 82 89 96 113 130 131 135 144 140 154 163 113 133 162 70 50 315 8 258 28 169 203 182 122 294 182 56 182 143 142 127 134 167 239 202 172 52 348 353 5 11 15 344 333 352 0 23 292
47 39 108 96 74 82 98 96 105 109 116 119 124 141 160 163 161 127 97 105 90 104 131 282 309 289 257 153 174 153 139 51 91 52 97 129 157 169 195 282 236 172 122 200 256 11 320 28 333 334 344 272 285 284
45 54 58 106 108 99 109 111 105 110 124 132 138 140 131 136 129 103 124 216 142 130 204 272 302 264 270 156 157 140 119 100 78 44 67 233 161 135 44 190 256 172 187 172 192 190 111 322 313 305 286 189 347 30
38 47 61 70 89 99 113 124 120 120 123 121 144 145 144 133 125 104 32 323 200 170 76 336 295 292 15 148 141 145 132 93 87 127 222 268 262 104 120 235 260 192 185 156 162 186 80 149 288 307 340 18 15 44
37 34 54 66 86 97 117 119 128 134 127 122 124 144 139 129 93 113 173 194 119 110 85 322 333 300 300 106 62 74 49 102 116 141 226 199 295 103 112 227 269 195 151 122 139 128 165 211 255 37 44 38 40 50
36 42 39 62 85 102 110 130 129 123 127 122 111 104 112 109 34 351 301 205 127 97 74 198 271 12 344 79 82 359 94 44 14 192 349 156 34 58 260 250 254 128 140 142 175 212 43 72 61 54 55 59 63 54
30 42 44 48 73 117 116 119 127 125 124 122 124 123 94 50 88 247 95 118 98 143 181 146 174 190 357 52 93 39 83 94 306 191 257 95 344 219 250 331 96 184 184 144 100 94 83 79 71 52 65 57 70 56
341 46 52 45 46 102 126 129 126 120 116 109 60 57 108 221 224 114 26 48 17 337 51 223 160 249 97 80 314 99 42 144 152 254 75 74 256 293 316 244 132 101 107 119 107 89 88 79 77 68 59 60 64 59
208 167 109 55 42 73 135 126 117 104 58 49 78 110 247 285 72 43 75 117 249 271 193 240 190 174 311 117 169 36 157 111 92 265 121 323 286 286 335 130 115 109 95 89 112 113 102 114 112 92 68 60 57 52
193 180 143 97 48 32 136 124 108 75 135 113 165 280 11 53 50 119 193 324 201 224 207 176 217 186 254 107 102 357 111 63 205 169 95 269 258 326 162 136 108 112 109 98 102 106 94 90 93 96 84 76 64 63
180 172 156 126 90 99 136 110 93 58 31 77 138 109 93 1 58 184 186 232 237 207 190 183 154 153 40 51 74 93 95 211 81 57 213 226 269 60 101 95 83 92 109 104 92 84 94 92 79 89 102 87 78 65
162 153 143 123 115 82 131 118 63 40 61 146 147 101 163 193 240 199 193 197 235 182 155 142 98 135 165 68 126 100 232 89 72 165 230 219 180 130 124 123 117 108 102 104 102 101 104 104 94 75 86 89 82 65
145 140 137 123 125 103 122 117 127 33 353 110 127 160 211 243 257 241 227 261 246 133 124 99 67 91 33 98 36 103 136 234 206 226 222 184 159 144 130 121 118 118 111 112 121 126 125 119 107 97 96 94 90 89
134 111 98 128 128 112 108 99 64 150 196 181 105 30 308 187 298 356 219 252 154 136 99 53 103 86 81 122 139 198 148 219 241 215 186 137 127 115 106 100 107 121 128 128 125 128 118 112 116 120 101 83 87 95
131 99 146 130 131 94 54 28 337 321 30 350 358 209 235 245 246 268 288 295 339 91 136 115 97 141 108 99 195 177 199 223 215 175 163 180 143 117 102 106 120 118 114 116 116 119 115 122 120 114 101 71 93 94
68 138 136 138 120 74 357 329 328 16 331 1 29 323 305 258 301 300 314 303 142 121 119 133 128 98 151 162 243 234 213 134 84 127 125 108 103 110 133 137 128 128 131 133 129 122 124 127 140 155 140 138 108 96
140 142 145 150 100 106 202 197 199 154 280 309 292 269 248 278 260 283 297 331 43 69 106 55 87 154 215 212 201 198 184 164 138 114 92 114 124 130 119 112 121 129 139 140 145 155 169 186 189 173 167 157 148 163
106 130 152 172 170 181 146 195 20 142 221 271 288 321 261 279 301 334 337 29 51 53 57 97 191 210 188 212 203 157 130 129 119 96 71 76 123 140 155 154 155 146 136 131 126 122 121 98 114 168 159 169 154 190
69 242 274 220 186 47 77 48 47 169 310 29 312 7 325 341 19 6 339 335 64 78 200 225 231 243 148 171 148 116 134 131 160 146 161 157 191 156 152 149 141 146 151 164 170 181 178 197 172 162 167 176 191 188
245 255 299 266 83 43 73 338 159 299 43 269 19 21 19 5 345 340 313 39 149 236 209 186 197 154 132 140 151 157 132 105 97 94 80 107 126 142 177 183 163 189 187 176 186 197 204 202 172 163 180 174 142 137
346 15 35 35 89 50 287 11 71 6 57 341 11 12 348 334 272 353 339 246 262 246 209 165 137 97 114 78 98 87 118 140 143 144 147 147 127 136 156 184 178 168 182 219 195 192 205 205 180 169 161 144 141 139
7 46 42 36 72 78 357 15 3 9 65 39 7 297 253 242 337 51 243 246 248 269 187 173 132 98 63 54 76 110 115 125 118 106 136 134 137 171 177 175 182 203 194 156 178 193 192 194 167 173 175 167 163 165
48 328 69 334 334 98 70 17 18 44 45 326 309 291 277 95 39 290 239 263 246 204 185 142 114 111 138 116 99 106 4 145 149 148 162 135 120 110 99 91 190 218 168 148 180 196 195 185 182 175 176 181 172 181
50 262 141 202 215 150 137 154 224 213 166 253 240 262 352 85 273 249 239 229 226 191 170 170 153 132 150 161 152 178 203 165 130 123 202 177 176 160 183 193 219 268 202 190 178 205 205 184 183 176 178 194 187 182
253 267 237 232 172 134 170 191 172 147 205 216 235 191 166 226 238 250 275 236 232 227 193 167 164 160 171 178 171 129 127 139 150 174 155 161 181 183 163 182 210 232 197 187 195 199 198 187 184 185 187 187 182 195
221 214 189 183 187 197 222 196 194 216 218 211 153 188 201 213 242 243 227 300 291 64 103 108 118 128 115 111 122 126 106 104 89 77 63 31 309 226 218 219 218 187 199 195 199 200 202 184 180 181 178 194 196 204
236 237 172 193 176 197 219 219 228 237 191 156 175 236 254 252 278 292 281 168 146 111 92 93 54 80 79 82 87 94 130 143 143 173 213 241 302 279 208 209 210 208 204 206 218 217 207 196 190 191 192 193 206 169
246 176 192 154 198 208 214 184 215 231 196 184 172 40 354 335 290 217 133 125 121 117 127 123 132 117 134 130 144 209 216 192 190 172 198 223 229 247 202 194 206 205 190 194 199 171 118 146 127 148 154 170 171 171
177 164 207 187 220 224 209 174 237 1 159 147 131 145 206 272 338 354 179 184 124 125 117 127 143 163 155 174 177 187 273 235 212 221 226 228 236 233 231 239 237 214 195 191 182 181 178 196 200 200 198 201 197 193
168 189 169 193 262 306 111 163 171 177 188 139 175 134 68 56 265 284 220 118 109 149 191 164 188 217 203 197 190 200 188 228 203 209 211 207 221 230 246 258 257 208 188 192 184 179 191 211 220 219 223 211 205 190
131 151 169 228 99 208 214 130 150 132 118 179 201 178 175 167 204 245 299 191 180 179 193 204 203 187 189 184 191 212 229 228 208 201 199 212 242 267 292 294 276 219 204 195 193 176 188 203 208 203 185 182 185 184